User: anonymous
Location: Clatteringshaws Loch
(55.0508°N, 4.2860°W)
Time: 00:58:10
(UTC+01:00)
Language:

ALOS - Orbit

View from above orbital plane
View from above orbital plane
View from above satellite
View from above satellite

Ground track
Ground track

The orbit data is extracted from the following two-line orbital elements,

1 28931U 06002A   14107.65914877  .00000893  00000-0  19098-3 0    26
2 28931 097.9891 167.8295 0001454 071.0977 082.1102 14.61063909438481
Epoch (UTC): 17 April 2014 15:49:10
Eccentricity: 0.0001454
inclination: 97.9891°
perigee height: 689 km
apogee height: 691 km
right ascension of ascending node: 167.8295°
argument of perigee: 71.0977°
revolutions per day: 14.61063909
mean anomaly at epoch: 82.1102°
orbit number at epoch: 43848

The dashed part of the orbit path shows where the satellite is in the earth's shadow,  

DLR